星链-36816(STARLINK-36816)

导读

STARLINK-36816是美国于2026年2月21日发射的Starlink星链系列卫星,隶属于SpaceX公司的星链项目,该项目旨在构建全球卫星互联网星座,为全球各个地区提供高速、低延迟的宽带网络服务,此卫星发射后将加入庞大的星链卫星网络,进一步拓展星链系统的全球覆盖能力与服务容量。

Basic Information
目录编号:
67891
目录名称:
STARLINK-36816
国际标识:
2026-035N
轨道中心:
EARTH
卫星名称:
星链-36816
卫星全名:
星链-36816(STARLINK-36816)
卫星状态:
在轨 (已飞行195 天)
发射日期:
2026-02-21 UTC
国别 :
美国 (US)
星等 :
--
Orbit Information
数据来源 国际轨道数据
星历时间: 2026-09-04T02:26:42+0800
11小时前
查看轨道信息
半长轴: 6843.652km
偏心率: 0.0001252
轨道倾角: 97.287°
近地点辐角 68.029°
升交点赤经 177.862°
平近点角 292.109°
近地点: 464.658km
远地点: 466.372km
周期: 93.906分钟
每日圈数: 15.334545
Detailed Information
固有亮度:
5
最大亮度:
2.5
卫星平台:
Starlink V1.0
覆盖范围:
全球
运营商:
太空探索技术公司
运营商所在国:
美国
制造商(研发单位):
太空探索技术公司
制造商所在国:
美国
使用方式:
暂无
Satellite Introduction
Starlink 计划是 SpaceX 推出的全球卫星互联网项目,通过发射低轨道卫星,为全球尤其是偏远地区提供高速、低延迟的互联网服务。自 2019 年起,Starlink 已部署数千颗卫星,旨在缩小全球数字鸿沟,推动互联网普及。该项目还为军事、航空等行业提供通信支持,带来广泛经济效益。
2D Orbit Map
3D Orbit Map
Orbit Altitude Analysis Chart
Orbit Inclination Analysis Chart
Orbit Comprehensive Analysis Chart
View Comprehensive Chart
Conjunction Data List
Event ID Objects TCA Miss Dist (km) Collision Risk Probability Collision Risk Index (CRI) Action
CDM_260903-040904-737606-789121
2026-09-03T
04:09:10+0000
2.423 km
极远距离
1.796846E-6 低风险 0.4
CDM_260904-104105-357006-789121
2026-09-04T
10:41:36+0000
2.538 km
极远距离
1.655768E-6 低风险 0.39
CDM_260828-143406-417506-789121
2026-08-28T
14:34:01+0000
2.669 km
极远距离
1.558172E-6 低风险 0.39
CDM_260905-054904-859706-789121
2026-09-05T
05:49:35+0000
2.768 km
极远距离
1.469014E-6 低风险 0.38
CDM_260830-163603-557306-789123
2026-08-30T
16:36:12+0000
2.865 km
极远距离
1.437155E-6 低风险 0.38
CDM_260904-045006-223106-789121
2026-09-04T
04:50:22+0000
2.426 km
极远距离
1.430675E-6 低风险 0.38
CDM_260903-063305-248906-789123
2026-09-03T
06:33:29+0000
2.826 km
极远距离
1.429582E-6 低风险 0.38
CDM_260904-044404-602906-789121
2026-09-04T
04:44:24+0000
2.868 km
极远距离
1.405302E-6 低风险 0.38
CDM_260828-133604-868206-789121
2026-08-28T
13:36:58+0000
2.896 km
极远距离
1.395597E-6 低风险 0.38
CDM_260904-141104-783606-789121
2026-09-04T
14:11:52+0000
2.715 km
极远距离
1.060772E-6 低风险 0.36